Overview Statistics Trail Chart Weather Telemetry Raw packets
 

This is the latest recevied weather packets stored in our database for station/object E24QND-2. If no packets are shown the sender has not sent any weather packets the latest 10 day(s).

<< 19 20 21 22 23 24 25 >>
Time Temp. Humidity Pressure Rain* Wind** Luminosity Snow
1788079827 30.56° C 1% - - - 0 W/m² -
1788078602 30.56° C 1% - - - 0 W/m² -
1788077377 30° C 1% - - - 0 W/m² -
1788076153 30° C 1% - - - 0 W/m² -
1788074928 30° C 1% - - - 0 W/m² -
1788073704 30° C 1% - - - 0 W/m² -
1788072479 30° C 1% - - - 0 W/m² -
1788071255 31.11° C 1% - - - 0 W/m² -
1788070030 30.56° C 1% - - - 0 W/m² -
1788068807 29.44° C 1% - - - 0 W/m² -
1788067581 29.44° C 1% - - - 0 W/m² -
1788066357 29.44° C 9% - - - 0 W/m² -
1788065132 28.89° C 95% - - - 0 W/m² -
1788063908 28.33° C 51% - - - 0 W/m² -
1788062683 28.33° C 99% - - - 0 W/m² -
1788061459 28.33° C 99% - - - 0 W/m² -
1788060234 28.33° C 99% - - - 0 W/m² -
1788059009 27.78° C 99% - - - 0 W/m² -
1788057785 27.78° C 1% - - - 0 W/m² -
1788056560 27.78° C 1% - - - 0 W/m² -
1788055335 26.67° C 99% - - - 0 W/m² -
1788054111 26.67° C 99% - - - 0 W/m² -
1788052886 26.67° C 1% - - - 0 W/m² -
1788051662 26.11° C 1% - - - 0 W/m² -
1788050437 26.67° C 99% - - - 0 W/m² -

* Rain since midnight (hover to see other rain measurements)
** Current wind speed in m/s (hover to see current wind gust speed)